EJU616Q LFLL-LFKJ

Flight info

Callsign EJU616Q
Flight time 0h 55m
Altitude 33000
Route ROMAM T43 BEPER DCT RETNO DCT KOLON DCT OMARD M623 VAREK
Aircraft A320/M-SDE2E3FGHIJ1RWXYZ/LB1

Departure

Time 2026-04-25 22:55
Airport Lyon Saint-Exupéry Airport (LFLL)

Arrival

Time 2026-04-25 23:50
Airport Ajaccio Napoléon Bonaparte airport (LFKJ)
Time Latitude Longitude Altitude Speed Heading
2026-04-25 22:14 45.71602 5.08210 802 ft 0 kts 195°
2026-04-25 22:46 45.71613 5.08214 802 ft 4 kts 195°
2026-04-25 22:46 45.71639 5.08224 802 ft 4 kts 195°
2026-04-25 22:46 45.71660 5.08232 801 ft 4 kts 181°
2026-04-25 22:47 45.71680 5.08221 801 ft 4 kts 115°
2026-04-25 22:47 45.71687 5.08191 800 ft 1 kts 105°
2026-04-25 22:47 45.71687 5.08190 800 ft 0 kts 105°
2026-04-25 22:49 45.71686 5.08195 800 ft 4 kts 105°
2026-04-25 22:50 45.71676 5.08250 801 ft 4 kts 101°
2026-04-25 22:50 45.71679 5.08322 800 ft 9 kts 86°
2026-04-25 22:50 45.71682 5.08409 800 ft 7 kts 87°
2026-04-25 22:50 45.71672 5.08472 802 ft 10 kts 127°
2026-04-25 22:51 45.71573 5.08507 803 ft 18 kts 175°
2026-04-25 22:51 45.71449 5.08521 807 ft 17 kts 175°
2026-04-25 22:51 45.71350 5.08534 812 ft 12 kts 174°
2026-04-25 22:51 45.71277 5.08546 813 ft 9 kts 173°
2026-04-25 22:52 45.71224 5.08555 814 ft 7 kts 178°
2026-04-25 22:52 45.71165 5.08570 815 ft 11 kts 158°
2026-04-25 22:52 45.71119 5.08635 813 ft 7 kts 113°
2026-04-25 22:52 45.71112 5.08675 816 ft 5 kts 101°
2026-04-25 22:53 45.71104 5.08722 819 ft 2 kts 105°
2026-04-25 22:53 45.71097 5.08760 819 ft 10 kts 105°
2026-04-25 22:53 45.71079 5.08885 817 ft 11 kts 89°
2026-04-25 22:53 45.71084 5.08929 820 ft 0 kts 73°
2026-04-25 22:54 45.71090 5.08956 821 ft 7 kts 71°
2026-04-25 22:54 45.71121 5.09024 819 ft 8 kts 31°
2026-04-25 22:54 45.71184 5.09019 819 ft 16 kts 355°
2026-04-25 22:54 45.71547 5.08976 812 ft 88 kts 356°
2026-04-25 22:55 45.72365 5.08875 799 ft 146 kts 355°
2026-04-25 22:55 45.73509 5.08742 1061 ft 167 kts 355°
2026-04-25 22:55 45.74603 5.08605 1979 ft 149 kts 354°
2026-04-25 22:55 45.75729 5.08439 2277 ft 178 kts 354°
2026-04-25 22:56 45.77015 5.08263 2755 ft 192 kts 354°
2026-04-25 22:56 45.78394 5.08059 3187 ft 206 kts 356°
2026-04-25 22:56 45.79882 5.07985 3635 ft 221 kts
2026-04-25 22:56 45.81473 5.07908 4115 ft 238 kts 358°
2026-04-25 22:57 45.83103 5.08348 4893 ft 244 kts 30°
2026-04-25 22:57 45.84243 5.10130 5701 ft 250 kts 67°
2026-04-25 22:57 45.84412 5.12609 6511 ft 257 kts 103°
2026-04-25 22:57 45.83559 5.14846 6985 ft 264 kts 136°
2026-04-25 22:58 45.81980 5.16137 7237 ft 266 kts 162°
2026-04-25 22:58 45.80181 5.16779 8088 ft 267 kts 168°
2026-04-25 22:58 45.78355 5.17322 8967 ft 269 kts 168°
2026-04-25 22:58 45.76509 5.17868 9781 ft 272 kts 168°
2026-04-25 22:59 45.74650 5.18463 10571 ft 276 kts 163°
2026-04-25 22:59 45.72817 5.19338 11339 ft 279 kts 161°
2026-04-25 22:59 45.70922 5.20003 12052 ft 285 kts 172°
2026-04-25 22:59 45.68857 5.20110 12303 ft 309 kts 180°
2026-04-25 23:00 45.66645 5.20031 12513 ft 332 kts 182°
2026-04-25 23:00 45.64274 5.19879 12926 ft 346 kts 183°
2026-04-25 23:00 45.61843 5.19698 13567 ft 352 kts 183°
2026-04-25 23:00 45.59373 5.19511 14252 ft 357 kts 183°
2026-04-25 23:01 45.56871 5.19329 14922 ft 361 kts 183°
2026-04-25 23:01 45.54381 5.19158 15570 ft 365 kts 183°
2026-04-25 23:01 45.51831 5.18989 16208 ft 369 kts 183°
2026-04-25 23:01 45.49245 5.18822 16830 ft 373 kts 183°
2026-04-25 23:02 45.46639 5.18658 17429 ft 377 kts 183°
2026-04-25 23:02 45.44003 5.18491 18018 ft 381 kts 184°
2026-04-25 23:02 45.41336 5.18319 18613 ft 384 kts 184°
2026-04-25 23:02 45.38653 5.18148 19182 ft 388 kts 184°
2026-04-25 23:03 45.35949 5.17977 19746 ft 391 kts 183°
2026-04-25 23:03 45.33256 5.17809 20315 ft 393 kts 183°
2026-04-25 23:03 45.30505 5.17636 20875 ft 396 kts 184°
2026-04-25 23:03 45.27741 5.17459 21416 ft 399 kts 184°
2026-04-25 23:04 45.24951 5.17279 21954 ft 403 kts 184°
2026-04-25 23:04 45.23092 5.17157 22304 ft 404 kts 184°
2026-04-25 23:04 45.19301 5.16910 23004 ft 408 kts 184°
2026-04-25 23:04 45.16486 5.16727 23516 ft 411 kts 183°
2026-04-25 23:05 45.13617 5.16542 24019 ft 413 kts 183°
2026-04-25 23:05 45.10735 5.16375 24501 ft 416 kts 181°
2026-04-25 23:05 45.07830 5.16602 24947 ft 419 kts 176°
2026-04-25 23:05 45.04919 5.16939 25393 ft 421 kts 176°
2026-04-25 23:06 45.01985 5.17272 25810 ft 424 kts 176°
2026-04-25 23:06 44.99034 5.17600 26224 ft 426 kts 176°
2026-04-25 23:06 44.96068 5.17926 26635 ft 428 kts 176°
2026-04-25 23:06 44.93089 5.18251 27016 ft 431 kts 176°
2026-04-25 23:07 44.90089 5.18581 27402 ft 433 kts 176°
2026-04-25 23:07 44.87113 5.18912 27764 ft 435 kts 176°
2026-04-25 23:07 44.84084 5.19249 28130 ft 437 kts 176°
2026-04-25 23:07 44.81040 5.19587 28492 ft 439 kts 176°
2026-04-25 23:08 44.77999 5.19924 28839 ft 441 kts 177°
2026-04-25 23:08 44.74922 5.20265 29171 ft 443 kts 177°
2026-04-25 23:08 44.71874 5.20601 29479 ft 445 kts 177°
2026-04-25 23:08 44.68795 5.21143 29793 ft 448 kts 169°
2026-04-25 23:09 44.65795 5.22411 30086 ft 452 kts 159°
2026-04-25 23:09 44.62983 5.24411 30382 ft 454 kts 148°
2026-04-25 23:09 44.60447 5.27086 30652 ft 457 kts 138°
2026-04-25 23:09 44.58253 5.30329 30899 ft 459 kts 131°
2026-04-25 23:10 44.56143 5.33716 31164 ft 461 kts 131°
2026-04-25 23:10 44.54740 5.35954 31325 ft 462 kts 131°
2026-04-25 23:10 44.51912 5.40440 31690 ft 464 kts 131°
2026-04-25 23:10 44.49769 5.43823 32032 ft 463 kts 131°
2026-04-25 23:11 44.48323 5.46098 32265 ft 462 kts 132°
2026-04-25 23:11 44.46213 5.49416 32599 ft 462 kts 132°
2026-04-25 23:11 44.44072 5.52787 32911 ft 461 kts 132°
2026-04-25 23:11 44.41941 5.56139 33087 ft 461 kts 132°
2026-04-25 23:12 44.39834 5.59451 33120 ft 449 kts 132°
2026-04-25 23:12 44.37767 5.62680 33118 ft 443 kts 136°
2026-04-25 23:12 44.33017 5.68070 33117 ft 439 kts 143°
2026-04-25 23:13 44.28178 5.73296 33119 ft 438 kts 143°
2026-04-25 23:13 44.23388 5.78488 33118 ft 438 kts 143°
2026-04-25 23:14 44.18584 5.83728 33117 ft 438 kts 143°
2026-04-25 23:14 44.13779 5.88960 33113 ft 437 kts 143°
2026-04-25 23:15 44.08974 5.94181 33106 ft 437 kts 143°
2026-04-25 23:15 44.04194 5.99339 33099 ft 437 kts 143°
2026-04-25 23:16 43.99378 6.04521 33098 ft 437 kts 143°
2026-04-25 23:16 43.94571 6.09696 33093 ft 437 kts 143°
2026-04-25 23:17 43.89766 6.14880 33091 ft 437 kts 143°
2026-04-25 23:17 43.84992 6.20010 33093 ft 437 kts 143°
2026-04-25 23:18 43.80166 6.25160 33094 ft 437 kts 143°
2026-04-25 23:18 43.75371 6.30271 33092 ft 436 kts 143°
2026-04-25 23:19 43.70564 6.35393 33093 ft 436 kts 143°
2026-04-25 23:19 43.65747 6.40526 33097 ft 436 kts 143°
2026-04-25 23:20 43.60960 6.45617 33098 ft 436 kts 143°
2026-04-25 23:20 43.56137 6.50717 33094 ft 436 kts 143°
2026-04-25 23:21 43.51301 6.55823 33094 ft 436 kts 143°
2026-04-25 23:21 43.46505 6.60877 33094 ft 436 kts 143°
2026-04-25 23:22 43.41688 6.65954 33097 ft 436 kts 143°
2026-04-25 23:23 43.34434 6.73552 33100 ft 436 kts 143°
2026-04-25 23:23 43.29611 6.78601 33102 ft 436 kts 143°
2026-04-25 23:24 43.24816 6.83621 33104 ft 435 kts 143°
2026-04-25 23:24 43.19986 6.88663 33097 ft 435 kts 143°
2026-04-25 23:25 43.15197 6.93650 33100 ft 435 kts 143°
2026-04-25 23:25 43.10366 6.98670 33102 ft 435 kts 143°
2026-04-25 23:26 43.05538 7.03670 33104 ft 434 kts 143°
2026-04-25 23:26 43.00744 7.08622 33104 ft 434 kts 143°
2026-04-25 23:27 42.95915 7.13607 33105 ft 434 kts 143°
2026-04-25 23:27 42.91095 7.18566 33106 ft 434 kts 143°
2026-04-25 23:28 42.86301 7.23501 33112 ft 434 kts 143°
2026-04-25 23:28 42.81472 7.28461 32982 ft 434 kts 143°
2026-04-25 23:28 42.79051 7.30944 32270 ft 437 kts 143°
2026-04-25 23:29 42.76630 7.33417 31762 ft 433 kts 143°
2026-04-25 23:29 42.74224 7.35872 31245 ft 429 kts 143°
2026-04-25 23:29 42.71846 7.38300 30740 ft 426 kts 143°
2026-04-25 23:29 42.69482 7.40711 30240 ft 422 kts 143°
2026-04-25 23:30 42.67165 7.43072 29769 ft 418 kts 143°
2026-04-25 23:30 42.64849 7.45431 29295 ft 414 kts 143°
2026-04-25 23:30 42.62550 7.47772 28824 ft 411 kts 143°
2026-04-25 23:30 42.60277 7.50086 28380 ft 406 kts 143°
2026-04-25 23:31 42.58014 7.52392 27930 ft 403 kts 143°
2026-04-25 23:31 42.55778 7.54669 27458 ft 399 kts 143°
2026-04-25 23:31 42.53591 7.56888 27030 ft 396 kts 143°
2026-04-25 23:31 42.51387 7.59116 26563 ft 393 kts 143°
2026-04-25 23:32 42.49196 7.61330 26113 ft 391 kts 143°
2026-04-25 23:32 42.47022 7.63526 25628 ft 389 kts 143°
2026-04-25 23:32 42.44856 7.65713 25150 ft 386 kts 143°
2026-04-25 23:32 42.42725 7.67861 24659 ft 384 kts 143°
2026-04-25 23:33 42.40588 7.70015 24176 ft 382 kts 143°
2026-04-25 23:33 42.38459 7.72162 23679 ft 380 kts 143°
2026-04-25 23:33 42.36344 7.74296 23191 ft 378 kts 143°
2026-04-25 23:33 42.34239 7.76416 22705 ft 376 kts 143°
2026-04-25 23:34 42.32135 7.78528 22222 ft 375 kts 143°
2026-04-25 23:34 42.30045 7.80621 21750 ft 373 kts 143°
2026-04-25 23:34 42.27968 7.82705 21281 ft 371 kts 143°
2026-04-25 23:34 42.25923 7.84759 20825 ft 369 kts 144°
2026-04-25 23:35 42.23873 7.86819 20363 ft 367 kts 144°
2026-04-25 23:35 42.21829 7.88866 19908 ft 365 kts 144°
2026-04-25 23:35 42.19794 7.90901 19454 ft 363 kts 144°
2026-04-25 23:35 42.17775 7.92920 19003 ft 361 kts 144°
2026-04-25 23:36 42.15762 7.94928 18547 ft 359 kts 144°
2026-04-25 23:36 42.13755 7.96924 18114 ft 357 kts 144°
2026-04-25 23:36 42.11762 7.98906 17678 ft 355 kts 144°
2026-04-25 23:36 42.09782 8.00874 17234 ft 353 kts 144°
2026-04-25 23:37 42.07808 8.02835 16825 ft 351 kts 144°
2026-04-25 23:37 42.05875 8.04756 16467 ft 347 kts 144°
2026-04-25 23:37 42.03924 8.06691 16063 ft 345 kts 144°
2026-04-25 23:37 42.01996 8.08607 15624 ft 344 kts 144°
2026-04-25 23:38 42.00081 8.10512 15198 ft 343 kts 144°
2026-04-25 23:38 41.98169 8.12409 14807 ft 340 kts 144°
2026-04-25 23:38 41.96269 8.14294 14444 ft 335 kts 144°
2026-04-25 23:38 41.94440 8.16106 13974 ft 324 kts 144°
2026-04-25 23:39 41.92655 8.17873 13588 ft 311 kts 144°
2026-04-25 23:39 41.90948 8.19562 13225 ft 299 kts 144°
2026-04-25 23:39 41.89300 8.21189 12859 ft 288 kts 144°
2026-04-25 23:39 41.87708 8.22761 12511 ft 282 kts 144°
2026-04-25 23:40 41.86147 8.24302 12170 ft 282 kts 144°
2026-04-25 23:40 41.84561 8.25863 11804 ft 282 kts 144°
2026-04-25 23:40 41.82976 8.27422 11444 ft 282 kts 144°
2026-04-25 23:40 41.81393 8.28979 11085 ft 282 kts 144°
2026-04-25 23:41 41.79810 8.30535 10712 ft 282 kts 144°
2026-04-25 23:41 41.78229 8.32091 10344 ft 282 kts 144°
2026-04-25 23:41 41.76648 8.33648 9969 ft 281 kts 144°
2026-04-25 23:41 41.75072 8.35199 9585 ft 281 kts 144°
2026-04-25 23:42 41.73495 8.36748 9202 ft 281 kts 144°
2026-04-25 23:42 41.71923 8.38291 8807 ft 280 kts 144°
2026-04-25 23:42 41.70349 8.39835 8408 ft 280 kts 144°
2026-04-25 23:42 41.68779 8.41370 8007 ft 279 kts 144°
2026-04-25 23:43 41.67206 8.42905 7590 ft 279 kts 144°
2026-04-25 23:43 41.65658 8.44418 7180 ft 278 kts 144°
2026-04-25 23:43 41.64181 8.46077 6754 ft 278 kts 129°
2026-04-25 23:43 41.63339 8.48381 6329 ft 275 kts 100°
2026-04-25 23:44 41.63386 8.50820 6095 ft 255 kts 75°
2026-04-25 23:44 41.64142 8.52929 5492 ft 251 kts 53°
2026-04-25 23:44 41.65136 8.54787 5041 ft 244 kts 54°
2026-04-25 23:44 41.66089 8.56595 4965 ft 238 kts 54°
2026-04-25 23:45 41.67046 8.58424 4877 ft 239 kts 54°
2026-04-25 23:45 41.68001 8.60252 4774 ft 240 kts 54°
2026-04-25 23:45 41.68942 8.62055 4672 ft 239 kts 54°
2026-04-25 23:45 41.69889 8.63876 4459 ft 237 kts 54°
2026-04-25 23:46 41.70831 8.65689 4319 ft 237 kts 54°
2026-04-25 23:46 41.71896 8.67360 4124 ft 236 kts 37°
2026-04-25 23:46 41.73318 8.68415 3841 ft 234 kts 24°
2026-04-25 23:46 41.74798 8.69320 3543 ft 233 kts 24°
2026-04-25 23:47 41.76271 8.70227 3237 ft 232 kts 24°
2026-04-25 23:47 41.77733 8.71132 2928 ft 231 kts 24°
2026-04-25 23:47 41.79182 8.72031 2629 ft 229 kts 24°
2026-04-25 23:47 41.80626 8.72927 2317 ft 226 kts 25°
2026-04-25 23:48 41.82024 8.73796 2016 ft 216 kts 25°
2026-04-25 23:48 41.83357 8.74623 1735 ft 206 kts 25°
2026-04-25 23:48 41.84627 8.75412 1463 ft 196 kts 25°
2026-04-25 23:48 41.85830 8.76157 1262 ft 184 kts 26°
2026-04-25 23:49 41.86953 8.76856 993 ft 172 kts 26°
2026-04-25 23:49 41.87978 8.77489 813 ft 150 kts 24°
2026-04-25 23:49 41.88893 8.78055 576 ft 142 kts 25°
2026-04-25 23:49 41.89764 8.78615 378 ft 137 kts 25°
2026-04-25 23:50 41.90644 8.79149 204 ft 141 kts 25°
2026-04-25 23:50 41.91523 8.79704 31 ft 137 kts 25°
2026-04-25 23:50 41.92251 8.80160 19 ft 79 kts 25°
2026-04-25 23:50 41.92520 8.80327 22 ft 27 kts 25°
2026-04-25 23:51 41.92675 8.80423 29 ft 19 kts 25°
2026-04-25 23:51 41.92762 8.80431 27 ft 12 kts 313°
2026-04-25 23:51 41.92796 8.80348 28 ft 9 kts 297°
2026-04-25 23:51 41.92827 8.80267 27 ft 10 kts 294°
2026-04-25 23:52 41.92800 8.80190 27 ft 9 kts 222°
2026-04-25 23:52 41.92752 8.80143 26 ft 9 kts 214°
2026-04-25 23:52 41.92698 8.80101 27 ft 9 kts 202°
2026-04-25 23:52 41.92643 8.80069 27 ft 9 kts 203°
2026-04-25 23:53 41.92549 8.80012 30 ft 17 kts 204°
2026-04-25 23:53 41.92445 8.79949 26 ft 16 kts 206°
2026-04-25 23:53 41.92343 8.79883 28 ft 16 kts 206°
2026-04-25 23:53 41.92245 8.79824 29 ft 15 kts 204°
2026-04-25 23:54 41.92155 8.79769 28 ft 14 kts 206°
2026-04-25 23:54 41.92074 8.79717 30 ft 12 kts 208°
2026-04-25 23:54 41.92003 8.79674 26 ft 10 kts 203°
2026-04-25 23:54 41.91991 8.79625 31 ft 5 kts 298°
2026-04-25 23:55 41.92015 8.79611 26 ft 0 kts 344°